User: anonymous
Location: Caltech
(34.1382°N, 118.1253°W)
Time: 03:43:43
(UTC-07:00)
Language:

PAYLOAD A - Orbit

View from above orbital plane
View from above orbital plane
View from above satellite
View from above satellite

Ground track
Ground track

The orbit data is extracted from the following two-line orbital elements,

1 27840U 03031A   14231.14178140  .00000053  00000-0  29828-4 0  6173
2 27840 098.2332 257.2051 0097992 353.4422 087.8642 14.38718186584763
Epoch (UTC): 19 August 2014 03:24:09
Eccentricity: 0.0097992
inclination: 98.2332°
perigee height: 693 km
apogee height: 833 km
right ascension of ascending node: 257.2051°
argument of perigee: 353.4422°
revolutions per day: 14.38718186
mean anomaly at epoch: 87.8642°
orbit number at epoch: 58476

The dashed part of the orbit path shows where the satellite is in the earth's shadow,  

DLR